INTELSAT 19 (IS-19) (38356 NORAD) Tracking and Keplerian Element Data

This shows tracking and keplerian element data for the satellite.

Feedback or suggestion? Click here.




ElementValue
Catalog38356
NameINTELSAT 19 (IS-19)
Epoch Orbit3680
Epoch Day269.77542164
Epoch Year2022
RAAN229.4808
Inclination0.0144
Eccentricity0.0003039
Argument of Perigee319.721
Mean Anonmoly261.5236
Mean Motion1.00271512
Decay Rate-5.3E-07
L11 38356U 12030A 22269.77542164 -.00000053 00000+0 00000+0 0 9995
L22 38356 0.0144 229.4808 0003039 319.7210 261.5236 1.00271512 36808

Live tracking and technical data element details for INTELSAT 19 (IS-19) (NORAD 38356). INTELSAT 19 (IS-19) can be tracked NOW for your location showing map with azimuth and elevation plus other details from your city location.

Track the satellite on the map from your city or location and see movement details for azimuth, elevation, latitude, longitude, range, height, and movement on the map or in text.







IsCatalogInMostPopularTable: catalog: 38356, numindb: 606
Update: records affected: 1



GetName: 38356 INTELSAT 19 (IS-19)

Hit Count: updated at: Fri, 30 Sep 2022 02:47:26 GMT